Regional Weather Roundup
Issued by NWS Kansas City/Pleasant Hill, MO

Home | Current Version | Previous Version | Graphics & Text | Print | Product List | Glossary Off
Versions: 1 2 3 4 5 6 7 8 9 10 11 12 13 14 15 16 17 18 19 20 21 22 23 24 25 26 27 28 29 30 31 32 33 34 35 36 37 38 39 40 41 42 43 44 45 46 47 48 49 50

463
ASUS43 KEAX 230710
RWREAX

WEATHER ROUNDUP FOR EASTERN KANSAS AND NORTHWEST MISSOURI
NATIONAL WEATHER SERVICE KANSAS CITY/PLEASANT HILL MO
200 AM CDT SAT SEP 23 2017

KSZ040-057-103>105-MOZ028-029-037-043-230800-
...KANSAS CITY METROPOLITAN AREA...

CITY           SKY/WX    TMP DP  RH WIND       PRES   REMARKS
K.C. INTL      CLEAR     71  68  90 S9        29.97R
K.C. DOWNTOWN  CLEAR     76  69  79 S3        29.95S
LEES SUMMIT    CLEAR     74  70  87 SE8       29.98S
OLATHE - IXD   CLEAR     71  67  87 S5        29.97S
OLATHE - OJC   CLEAR     70  68  93 CALM      29.97S
LAWRENCE       CLEAR     71  69  93 E7        29.95S

$$

MOZ001>008-011>017-020>025-030>033-038>040-044>046-053-054-230800-
...NORTHERN AND CENTRAL MISSOURI...

CITY           SKY/WX    TMP DP  RH WIND       PRES   REMARKS
ST. JOSEPH     CLEAR     71  69  93 S5        29.95S
MOSBY          SUNNY     68  68 100 CALM      29.97S FOG
WARRENSBURG    CLEAR     70  66  88 SE5       29.98S
WHITEMAN AFB   CLEAR     72  72 100 S3        29.97S
CLINTON        CLEAR     68  66  94 CALM      29.99S
SEDALIA        CLEAR     72  69  90 S9        30.00S
WARSAW         NOT AVBL
CHILLICOTHE      N/A     71  69  93 CALM      29.99R
KIRKSVILLE     CLEAR     70  64  81 S3        30.00S

$$

MOZ041-047>049-056>058-063>065-088>090-097-230800-
...EASTERN AND SOUTHERN MISSOURI...

CITY           SKY/WX    TMP DP  RH WIND       PRES   REMARKS
ST. LOUIS INTL CLEAR     75  65  70 E5        30.02S
SPIRIT OF STL  CLEAR     67  66  97 CALM      30.01R
COLUMBIA       CLEAR     73  67  81 SE8       30.01R
JEFFERSON CITY CLEAR     70  66  87 CALM      29.99S
ROLLA          CLEAR     70  64  81 S6        30.03S
OSAGE BEACH    CLEAR     71  66  84 S3        30.02S
SPRINGFIELD    CLEAR     71  67  87 SE8       30.01S
BRANSON        CLEAR     72  64  78 SE7       30.03S
JOPLIN         CLEAR     73  68  84 SE6       29.98F
WEST PLAINS    CLEAR     68  64  87 CALM      30.06R

$$

IAZ060-094-KSZ022-034>040-054-083-096-NEZ052-066-093-230800-
...KANSAS...SOUTHEAST NEBRASKA AND IOWA...

CITY           SKY/WX    TMP DP  RH WIND       PRES   REMARKS
TOPEKA         CLEAR     73  69  87 SE6       29.94R
MANHATTAN      PTCLDY    77  68  73 S10       29.91R
EMPORIA        CLOUDY    71  65  81 S9        29.94S
CHANUTE        CLEAR     71  67  87 SE7       29.96S
WICHITA        PTCLDY    74  68  81 S13       29.92S
OMAHA          PTCLDY    78  67  68 S16       29.87R
LINCOLN        CLEAR     76  67  73 S14       29.88R
FALLS CITY     CLEAR     76  68  76 S8        29.92S
LAMONI         CLEAR     73  68  84 SE6       29.97F
DES MOINES     CLEAR     74  67  78 S7        29.95R

$$





USA.gov is the U.S. government's official web portal to all federal, state and local government web resources and services.